Regional Weather Roundup
Issued by NWS

Home | Current Version | Previous Version | Text Only | Print | Product List | Glossary On
Versions: 1 2 3 4 5 6 7 8 9 10 11 12 13 14 15 16 17 18 19 20 21 22 23 24 25 26 27 28 29 30 31 32 33 34 35 36 37 38 39 40 41 42 43 44 45 46 47 48 49 50
000
ASUS43 KMPX 011801
RWRMN
WEATHER ROUNDUP FOR MINNESOTA
NATIONAL WEATHER SERVICE TWIN CITIES/CHANHASSEN MN
100 PM CDT WED APR 01 2015


NOTE: "FAIR" INDICATES FEW OR NO CLOUDS BELOW 12,000 FEET WITH NO
SIGNIFICANT WEATHER AND/OR OBSTRUCTIONS TO VISIBILITY. N/A MEANS
CURRENT SKY AND/OR WEATHER CONDITIONS ARE NOT AVAILABLE.

MNZ060>063-068>070-011900-
   Twin Cities Metro

CITY           SKY/WX    TMP DP  RH WIND       PRES   REMARKS
TWIN CITIES    PTSUNNY   74  35  24 S22G28    29.62F
6HR MIN TEMP:  44; 6HR MAX TEMP:  74;

ST PAUL        FAIR      72  36  26 S24G35    29.63F
CRYSTAL        FAIR      77  34  21 S17G36    29.58F
BLAINE         PTSUNNY   73  37  27 S18G28    29.60F
LAKEVILLE      FAIR      72  39  30 S24G39    29.63F
EDEN PRAIRIE   FAIR      76  35  22 S22G39    29.59F
6HR MIN TEMP:  45; 6HR MAX TEMP:  76;

SOUTH ST PAUL  FAIR      74  36  25 S20G31    29.63F
LAKE ELMO      FAIR      72  41  33 S28G35    29.65F
$$
MNZ001>005-007-008-013>017-022>024-027-028-011900-
   Northwest Minnesota

CITY           SKY/WX    TMP DP  RH WIND       PRES   REMARKS
BEMIDJI        FAIR      63  36  36 S20       29.43F
HALLOCK        FAIR      63  41  45 S16       29.33F
ROSEAU         FAIR      61  39  44 S13       29.39F
WARROAD        FAIR      57  41  54 S12         N/A
THIEF RVR FALL FAIR      63  39  42 S14       29.37F
CROOKSTON      FAIR      66  37  34 S17G23    29.35F
FOSSTON        FAIR      64  36  34 S17G26    29.38F
DETROIT LAKES  FAIR      64  37  36 S17       29.41F
MOORHEAD       FAIR      68  36  30 S13G22    29.37F
PARK RAPIDS    FAIR      64  36  35 S13       29.45F
MAHNOMEN       FAIR      64  38  37 S18G28    29.39F
$$
MNZ006-009>011-018-025>026-011900-
   North Central Minnesota

CITY           SKY/WX    TMP DP  RH WIND       PRES   REMARKS
BAUDETTE       FAIR      58  35  42 S18       29.42F
FLAG ISLAND    FAIR      46  30  53 SE10G17   29.41F
INTL FALLS     FAIR      57  33  40 S15G22    29.49F
6HR MIN TEMP:  34; 6HR MAX TEMP:  57; 6HR PCP: TRACE;

WASKISH        FAIR      59  37  44 SE12G23   29.44F
BIG FORK       FAIR      59  34  38 S16G24    29.49F
LONGVILLE      FAIR      57  34  41 SE13G20   29.49F
GRAND RAPIDS   FAIR      57  34  41 S16G32    29.53F
ORR            FAIR      55  28  35 SE13G25   29.51F
COOK           FAIR      55  34  44 S15G21    29.56F
WALKER         FAIR      59  34  39 SE13G20   29.47F
$$
MNZ012-019>021-037-011900-
   Northeast Minnesota

CITY           SKY/WX    TMP DP  RH WIND       PRES   REMARKS
DULUTH         FAIR      44  32  62 E16       29.63F
6HR MIN TEMP:  30; 6HR MAX TEMP:  44;

ELY            FAIR      50  30  46 S15G21    29.61F
EVELETH        FAIR      52  34  50 SE17G24   29.60F
DULUTH HARBOR  FAIR      36  32  87 NE18G24   29.68F
TWO HARBORS    FAIR      45  34  65 E17       29.65F
SILVER BAY     FAIR      37  32  81 NE16G23   29.68F
GRAND MARAIS     N/A     32  29  88 NE20G28   29.78F WCI  20
G MARAIS ARPRT FAIR      30  28  93 E13G20    29.73F WCI  20
$$
MNZ029>031-032-039>041-046>048-054>057-064-011900-
   West Central Minnesota

CITY           SKY/WX    TMP DP  RH WIND       PRES   REMARKS
FERGUS FALLS   FAIR      68  37  32 S20       29.42F
WHEATON        FAIR      63  41  45 SW3       29.44R
MORRIS         FAIR      70  45  40 SW24G35   29.42F
ALEXANDRIA     PTSUNNY   66  38  35 S17G30    29.47F
ELBOW LAKE     FAIR      66  44  45 S22       29.43F
WADENA         FAIR      66  41  39 S17G24    29.45F
GLENWOOD       FAIR      70  41  35 S24G35    29.47F HAZE
APPLETON       FAIR      73  39  29 SW24G33   29.43F
BENSON         FAIR      73  39  29 SW13      29.46F
ORTONVILLE     FAIR      72  41  33 SW14G23   29.41F
MADISON        FAIR      73  39  29 SW31G39   29.43F
WILLMAR        FAIR      72  37  28 S8        29.51F HAZE
$$
MNZ033>034-036-042>043-049>051-058-059-011900-
   Central Minnesota

CITY           SKY/WX    TMP DP  RH WIND       PRES   REMARKS
ST CLOUD       FAIR      70  34  26 S24G37    29.52F
6HR MIN TEMP:  46; 6HR MAX TEMP:  71;

SAUK CENTRE    MOCLDY    67  38  35 S24G31    29.47F
PAYNESVILLE    FAIR      66  36  33 SE17G24   29.52F
AITKIN         FAIR      63  36  36 S18G24    29.52F
PINE RIVER     FAIR      61  39  44 SE17G23   29.52F
BRAINERD       FAIR      64  36  35 S17       29.51F
STAPLES        FAIR      66  36  32 S20G26    29.48S
LONG PRAIRIE   CLOUDY    64  37  36 S20       29.49F
LITTLE FALLS   FAIR      68  32  26 S17G25    29.51F
LITCHFIELD     FAIR      72  37  28 CALM      29.53F
MAPLE LAKE     FAIR      71  38  29 S17G28    29.56F
$$
MNZ037-044-045-052-053-011900-
   East Central Minnesota

CITY           SKY/WX    TMP DP  RH WIND       PRES   REMARKS
PRINCETON      FAIR      70  36  28 SE20G25   29.56F
MORA           FAIR      63  36  36 SE12G20   29.58F
CAMBRIDGE      FAIR      70  46  43 SE8G16    29.56F
RUSH CITY      FAIR      64  36  34 SE18G28   29.59F
MOOSE LAKE     FAIR      59  34  38 SE9G17    29.57F
HINCKLEY       FAIR      61  36  39 SE14G21   29.60F
CLOQUET        FAIR      43  32  65 E10       29.63F
MCGREGOR       FAIR      59  36  41 S12G17    29.56F
$$
MNZ071>073-080-081-089-090-097-098-011900-
   Southwest Minnesota

CITY           SKY/WX    TMP DP  RH WIND       PRES   REMARKS
MONTEVIDEO     FAIR      75  43  31 W25G38    29.46F
GRANITE FALLS  FAIR      75  42  30 S29G46    29.49F HAZE
CANBY          FAIR      73  40  30 SW29G40   29.48S
MARSHALL       FAIR      75  43  31 SW38G47   29.50F
REDWOOD FALLS  PTSUNNY   78  41  26 S30G45    29.51F HAZE
OLIVIA         FAIR      72  43  35 S23G33    29.50F
PIPESTONE      FAIR      75  39  27 SW29G35   29.57F
WINDOM         FAIR      77  37  24 S28G40    29.58F
WORTHINGTON    FAIR      75  41  29 S32G40    29.60F
JACKSON        FAIR      77  34  20 S30G41    29.62F
TRACY          FAIR      76  42  30 SW28G37   29.55S
SLAYTON        FAIR      74  35  23 S32G43    29.56F
$$
MNZ065>067-074>077-082>085-091>093-011900-
   South Central Minnesota

CITY           SKY/WX    TMP DP  RH WIND       PRES   REMARKS
MANKATO        FAIR      77  34  20 S30G43    29.62F
NEW ULM        FAIR      75  32  20 S28G44    29.55F
FAIRMONT       FAIR      77  30  18 S36G43    29.62F
GLENCOE        FAIR      72  41  32 S15G25    29.57F
FARIBAULT      FAIR      73  37  27 S26G37    29.67F
OWATONNA       FAIR      73  36  25 S23G30    29.68F
WASECA         FAIR      73  37  27 S26G43    29.68F
ALBERT LEA     FAIR      75  34  22 S24G33    29.69F
$$
MNZ078>079-086>088-094>096-011900-
   Southeast Minnesota

CITY           SKY/WX    TMP DP  RH WIND       PRES   REMARKS
ROCHESTER      FAIR      69  43  38 S30G39    29.73F
6HR MIN TEMP:  44; 6HR MAX TEMP:  69;

RED WING       FAIR      73  34  23 SW17G35   29.69F
STANTON        FAIR      73  39  29 S23G32    29.65F
DODGE CENTER   FAIR      70  43  37 S26G35    29.71F
WINONA         FAIR      73  36  25 S9G29     29.73F
AUSTIN         FAIR      72  39  30 S21G33    29.73F
PRESTON        FAIR      71  37  29 S28G37    29.76F
$$
ABBREVIATIONS USED IN REMARKS
   TC - TEMPERATURES IN CELSIUS
  WCI - WIND CHILL INDEX
   HX - HEAT INDEX
  VSB - VISIBILITY
$$


USA.gov is the U.S. government's official web portal to all federal, state and local government web resources and services.